Tracking 19484 objects as of 19-Jan-2019
HD Live streaming from Space Station
objects crossing your sky now

COSMOS 1018

Track COSMOS 1018 now!
10-day predictions
COSMOS 1018 is classified as:


NORAD ID: 10935
Int'l Code: 1978-056F
Perigee: 1,449.2 km
Apogee: 1,495.2 km
Inclination: 74.0 °
Period: 115.2 minutes
Semi major axis: 7843 km
RCS: 0.7262 m2 (medium)
Launch date: June 7, 1978
Source: Commonwealth of Independent States (former USSR) (CIS)
Launch site: PLESETSK MISSILE AND SPACE COMPLEX (PKMTR)
aabbcc
Your satellite tracking list
Your tracking list is empty




NASA's NSSDC Master Catalog

Two Line Element Set (TLE):
1 10935U 78056F   19017.93112685 -.00000033 +00000-0 -11238-3 0  9993
2 10935 074.0289 326.7557 0029300 172.9249 243.8901 12.49865081853077
Source of the keplerian elements: AFSPC